User: anonymous   Login
Location: *
(48.8489°N, 2.3218°E)
Time: 13:23:16
(UTC+00:00)
Language:

Geosat - Orbit

View from above orbital plane
View from above orbital plane
View from above satellite
View from above satellite

Ground track
Ground track

The orbit data is extracted from the following two-line orbital elements,

1 15595U 85021A   19294.94055413 -.00000055 +00000-0 +26371-4 0  9991
2 15595 108.0340 072.6372 0002303 282.2900 185.8211 14.38129690813282
Epoch (UTC): 21 October 2019 22:34:23
Eccentricity: 0.0002303
inclination: 108.0340°
perigee height: 763 km
apogee height: 766 km
right ascension of ascending node: 72.6372°
argument of perigee: 282.2900°
revolutions per day: 14.38129690
mean anomaly at epoch: 185.8211°
orbit number at epoch: 81328

The dashed part of the orbit path shows where the satellite is in the earth's shadow,  

DLR